Date_Time,Julian_Date,Latitude,Longitude,Instrument_Depth,U,V,Speed,Direction
(yyyy-mm-dd hh:mn:ss UTC),(JD),(+ deg. North),(+ deg. East),(m),(cm/s),(cm/s),(cm/s),(deg True)
1982-03-14 16:00:00 UTC,2445043.166667,29.4519,-93.4333,0037,3.61,4.79,6.0000,37.0000
1982-03-14 16:30:00 UTC,2445043.187500,29.4519,-93.4333,0037,3.47,3.60,5.0000,44.0000
1982-03-14 17:00:00 UTC,2445043.208333,29.4519,-93.4333,0037,2.94,4.05,5.0000,36.0000
1982-03-14 17:30:00 UTC,2445043.229167,29.4519,-93.4333,0037,1.14,5.89,6.0000,11.0000
1982-03-14 18:00:00 UTC,2445043.250000,29.4519,-93.4333,0037,-0.16,9.00,9.0000,359.0000
1982-03-14 18:30:00 UTC,2445043.270833,29.4519,-93.4333,0037,-1.05,9.95,10.0000,354.0000
1982-03-14 19:00:00 UTC,2445043.291667,29.4519,-93.4333,0037,-0.87,9.96,10.0000,355.0000
1982-03-14 19:30:00 UTC,2445043.312500,29.4519,-93.4333,0037,0.70,9.98,10.0000,4.0000
1982-03-14 20:00:00 UTC,2445043.333333,29.4519,-93.4333,0037,1.72,8.83,9.0000,11.0000
1982-03-14 20:30:00 UTC,2445043.354167,29.4519,-93.4333,0037,0.31,5.99,6.0000,3.0000
1982-03-14 21:00:00 UTC,2445043.375000,29.4519,-93.4333,0037,-1.35,5.85,6.0000,347.0000
1982-03-14 21:30:00 UTC,2445043.395833,29.4519,-93.4333,0037,-1.46,6.85,7.0000,348.0000
1982-03-14 22:00:00 UTC,2445043.416667,29.4519,-93.4333,0037,-0.42,7.99,8.0000,357.0000
1982-03-14 22:30:00 UTC,2445043.437500,29.4519,-93.4333,0037,0.14,8.00,8.0000,1.0000
1982-03-14 23:00:00 UTC,2445043.458333,29.4519,-93.4333,0037,-0.63,5.97,6.0000,354.0000
1982-03-14 23:30:00 UTC,2445043.479167,29.4519,-93.4333,0037,-2.35,4.41,5.0000,332.0000
1982-03-15 00:00:00 UTC,2445043.500000,29.4519,-93.4333,0037,-3.53,1.88,4.0000,298.0000
1982-03-15 00:30:00 UTC,2445043.520833,29.4519,-93.4333,0037,-4.97,-0.52,5.0000,264.0000
1982-03-15 01:00:00 UTC,2445043.541667,29.4519,-93.4333,0037,-6.54,-2.51,7.0000,249.0000
1982-03-15 01:30:00 UTC,2445043.562500,29.4519,-93.4333,0037,-6.44,-2.74,7.0000,247.0000
1982-03-15 02:00:00 UTC,2445043.583333,29.4519,-93.4333,0037,-6.54,-2.51,7.0000,249.0000
1982-03-15 02:30:00 UTC,2445043.604167,29.4519,-93.4333,0037,-5.77,-1.65,6.0000,254.0000
1982-03-15 03:00:00 UTC,2445043.625000,29.4519,-93.4333,0037,-5.89,-1.14,6.0000,259.0000
1982-03-15 03:30:00 UTC,2445043.645833,29.4519,-93.4333,0037,-5.99,-0.31,6.0000,267.0000
1982-03-15 04:00:00 UTC,2445043.666667,29.4519,-93.4333,0037,-6.00,0.21,6.0000,272.0000
1982-03-15 04:30:00 UTC,2445043.687500,29.4519,-93.4333,0037,-6.00,-0.10,6.0000,269.0000
1982-03-15 05:00:00 UTC,2445043.708333,29.4519,-93.4333,0037,-7.00,-0.24,7.0000,268.0000
1982-03-15 05:30:00 UTC,2445043.729167,29.4519,-93.4333,0037,-7.00,-0.00,7.0000,270.0000
1982-03-15 06:00:00 UTC,2445043.750000,29.4519,-93.4333,0037,-6.79,1.69,7.0000,284.0000
1982-03-15 06:30:00 UTC,2445043.770833,29.4519,-93.4333,0037,-7.19,5.42,9.0000,307.0000
1982-03-15 07:00:00 UTC,2445043.791667,29.4519,-93.4333,0037,-7.07,8.43,11.0000,320.0000
1982-03-15 07:30:00 UTC,2445043.812500,29.4519,-93.4333,0037,-7.46,10.65,13.0000,325.0000
1982-03-15 08:00:00 UTC,2445043.833333,29.4519,-93.4333,0037,-7.73,12.86,15.0000,329.0000
1982-03-15 08:30:00 UTC,2445043.854167,29.4519,-93.4333,0037,-7.26,14.26,16.0000,333.0000
1982-03-15 09:00:00 UTC,2445043.875000,29.4519,-93.4333,0037,-7.01,14.38,16.0000,334.0000
1982-03-15 09:30:00 UTC,2445043.895833,29.4519,-93.4333,0037,-7.04,13.24,15.0000,332.0000
1982-03-15 10:00:00 UTC,2445043.916667,29.4519,-93.4333,0037,-8.39,12.44,15.0000,326.0000
1982-03-15 10:30:00 UTC,2445043.937500,29.4519,-93.4333,0037,-9.18,10.57,14.0000,319.0000
1982-03-15 11:00:00 UTC,2445043.958333,29.4519,-93.4333,0037,-9.51,8.87,13.0000,313.0000
1982-03-15 11:30:00 UTC,2445043.979167,29.4519,-93.4333,0037,-10.24,8.00,13.0000,308.0000
1982-03-15 12:00:00 UTC,2445044.000000,29.4519,-93.4333,0037,-10.65,7.46,13.0000,305.0000
1982-03-15 12:30:00 UTC,2445044.020833,29.4519,-93.4333,0037,-10.24,8.00,13.0000,308.0000
1982-03-15 13:00:00 UTC,2445044.041667,29.4519,-93.4333,0037,-9.03,9.35,13.0000,316.0000
1982-03-15 13:30:00 UTC,2445044.062500,29.4519,-93.4333,0037,-7.05,9.71,12.0000,324.0000
1982-03-15 14:00:00 UTC,2445044.083333,29.4519,-93.4333,0037,-4.77,7.63,9.0000,328.0000
1982-03-15 14:30:00 UTC,2445044.104167,29.4519,-93.4333,0037,-2.80,4.15,5.0000,326.0000
1982-03-15 15:00:00 UTC,2445044.125000,29.4519,-93.4333,0037,-2.12,2.12,3.0000,315.0000
1982-03-15 15:30:00 UTC,2445044.145833,29.4519,-93.4333,0037,-1.49,1.34,2.0000,312.0000
1982-03-15 16:00:00 UTC,2445044.166667,29.4519,-93.4333,0037,-0.91,0.42,1.0000,295.0000
1982-03-15 16:30:00 UTC,2445044.187500,29.4519,-93.4333,0037,-1.41,-1.41,2.0000,225.0000
1982-03-15 17:00:00 UTC,2445044.208333,29.4519,-93.4333,0037,-2.83,-2.83,4.0000,225.0000
1982-03-15 17:30:00 UTC,2445044.229167,29.4519,-93.4333,0037,-5.52,-2.34,6.0000,247.0000
1982-03-15 18:00:00 UTC,2445044.250000,29.4519,-93.4333,0037,-6.97,-0.61,7.0000,265.0000
1982-03-15 18:30:00 UTC,2445044.270833,29.4519,-93.4333,0037,-6.93,0.97,7.0000,278.0000
1982-03-15 19:00:00 UTC,2445044.291667,29.4519,-93.4333,0037,-5.74,1.75,6.0000,287.0000
1982-03-15 19:30:00 UTC,2445044.312500,29.4519,-93.4333,0037,-4.49,2.19,5.0000,296.0000
1982-03-15 20:00:00 UTC,2445044.333333,29.4519,-93.4333,0037,-4.53,3.94,6.0000,311.0000
1982-03-15 20:30:00 UTC,2445044.354167,29.4519,-93.4333,0037,-4.41,5.44,7.0000,321.0000
1982-03-15 21:00:00 UTC,2445044.375000,29.4519,-93.4333,0037,-5.03,7.46,9.0000,326.0000
1982-03-15 21:30:00 UTC,2445044.395833,29.4519,-93.4333,0037,-4.69,8.83,10.0000,332.0000
1982-03-15 22:00:00 UTC,2445044.416667,29.4519,-93.4333,0037,-3.66,8.22,9.0000,336.0000
1982-03-15 22:30:00 UTC,2445044.437500,29.4519,-93.4333,0037,-3.07,6.29,7.0000,334.0000
1982-03-15 23:00:00 UTC,2445044.458333,29.4519,-93.4333,0037,-3.61,4.79,6.0000,323.0000
1982-03-15 23:30:00 UTC,2445044.479167,29.4519,-93.4333,0037,-4.10,2.87,5.0000,305.0000
1982-03-16 00:00:00 UTC,2445044.500000,29.4519,-93.4333,0037,-4.97,3.36,6.0000,304.0000
1982-03-16 00:30:00 UTC,2445044.520833,29.4519,-93.4333,0037,-5.12,4.77,7.0000,313.0000
1982-03-16 01:00:00 UTC,2445044.541667,29.4519,-93.4333,0037,-6.02,6.69,9.0000,318.0000
1982-03-16 01:30:00 UTC,2445044.562500,29.4519,-93.4333,0037,-6.69,7.43,10.0000,318.0000
1982-03-16 02:00:00 UTC,2445044.583333,29.4519,-93.4333,0037,-8.34,8.63,12.0000,316.0000
1982-03-16 02:30:00 UTC,2445044.604167,29.4519,-93.4333,0037,-9.37,10.40,14.0000,318.0000
1982-03-16 03:00:00 UTC,2445044.625000,29.4519,-93.4333,0037,-9.55,10.24,14.0000,317.0000
1982-03-16 03:30:00 UTC,2445044.645833,29.4519,-93.4333,0037,-9.66,8.70,13.0000,312.0000
1982-03-16 04:00:00 UTC,2445044.666667,29.4519,-93.4333,0037,-10.38,7.82,13.0000,307.0000
1982-03-16 04:30:00 UTC,2445044.687500,29.4519,-93.4333,0037,-11.14,6.70,13.0000,301.0000
1982-03-16 05:00:00 UTC,2445044.708333,29.4519,-93.4333,0037,-13.70,6.10,15.0000,294.0000
1982-03-16 05:30:00 UTC,2445044.729167,29.4519,-93.4333,0037,-15.22,4.94,16.0000,288.0000
1982-03-16 06:00:00 UTC,2445044.750000,29.4519,-93.4333,0037,-16.34,4.69,17.0000,286.0000
1982-03-16 06:30:00 UTC,2445044.770833,29.4519,-93.4333,0037,-17.12,5.56,18.0000,288.0000
1982-03-16 07:00:00 UTC,2445044.791667,29.4519,-93.4333,0037,-18.41,7.81,20.0000,293.0000
1982-03-16 07:30:00 UTC,2445044.812500,29.4519,-93.4333,0037,-19.05,11.00,22.0000,300.0000
1982-03-16 08:00:00 UTC,2445044.833333,29.4519,-93.4333,0037,-20.57,12.36,24.0000,301.0000
1982-03-16 08:30:00 UTC,2445044.854167,29.4519,-93.4333,0037,-21.87,12.12,25.0000,299.0000
1982-03-16 09:00:00 UTC,2445044.875000,29.4519,-93.4333,0037,-23.84,12.68,27.0000,298.0000
1982-03-16 09:30:00 UTC,2445044.895833,29.4519,-93.4333,0037,-25.36,14.06,29.0000,299.0000
1982-03-16 10:00:00 UTC,2445044.916667,29.4519,-93.4333,0037,-25.44,15.90,30.0000,302.0000
1982-03-16 10:30:00 UTC,2445044.937500,29.4519,-93.4333,0037,-25.56,19.26,32.0000,307.0000
1982-03-16 11:00:00 UTC,2445044.958333,29.4519,-93.4333,0037,-23.40,21.82,32.0000,313.0000
1982-03-16 11:30:00 UTC,2445044.979167,29.4519,-93.4333,0037,-21.82,23.40,32.0000,317.0000
1982-03-16 12:00:00 UTC,2445045.000000,29.4519,-93.4333,0037,-19.09,24.43,31.0000,322.0000
1982-03-16 12:30:00 UTC,2445045.020833,29.4519,-93.4333,0037,-16.34,25.16,30.0000,327.0000
1982-03-16 13:00:00 UTC,2445045.041667,29.4519,-93.4333,0037,-15.87,21.84,27.0000,324.0000
1982-03-16 13:30:00 UTC,2445045.062500,29.4519,-93.4333,0037,-16.97,16.97,24.0000,315.0000
1982-03-16 14:00:00 UTC,2445045.083333,29.4519,-93.4333,0037,-15.76,12.31,20.0000,308.0000
1982-03-16 14:30:00 UTC,2445045.104167,29.4519,-93.4333,0037,-14.26,9.26,17.0000,303.0000
1982-03-16 15:00:00 UTC,2445045.125000,29.4519,-93.4333,0037,-13.99,7.76,16.0000,299.0000
1982-03-16 15:30:00 UTC,2445045.145833,29.4519,-93.4333,0037,-14.26,9.26,17.0000,303.0000
1982-03-16 16:00:00 UTC,2445045.166667,29.4519,-93.4333,0037,-14.38,10.83,18.0000,307.0000
1982-03-16 16:30:00 UTC,2445045.187500,29.4519,-93.4333,0037,-12.26,10.28,16.0000,310.0000
1982-03-16 17:00:00 UTC,2445045.208333,29.4519,-93.4333,0037,-11.31,11.31,16.0000,315.0000
1982-03-16 17:30:00 UTC,2445045.229167,29.4519,-93.4333,0037,-10.70,13.21,17.0000,321.0000
1982-03-16 18:00:00 UTC,2445045.250000,29.4519,-93.4333,0037,-12.04,15.97,20.0000,323.0000
1982-03-16 18:30:00 UTC,2445045.270833,29.4519,-93.4333,0037,-14.14,16.85,22.0000,320.0000
1982-03-16 19:00:00 UTC,2445045.291667,29.4519,-93.4333,0037,-15.98,16.54,23.0000,316.0000
1982-03-16 19:30:00 UTC,2445045.312500,29.4519,-93.4333,0037,-15.28,15.83,22.0000,316.0000
1982-03-16 20:00:00 UTC,2445045.333333,29.4519,-93.4333,0037,-15.28,15.83,22.0000,316.0000
1982-03-16 20:30:00 UTC,2445045.354167,29.4519,-93.4333,0037,-15.28,15.83,22.0000,316.0000
1982-03-16 21:00:00 UTC,2445045.375000,29.4519,-93.4333,0037,-15.56,15.56,22.0000,315.0000
1982-03-16 21:30:00 UTC,2445045.395833,29.4519,-93.4333,0037,-15.36,14.32,21.0000,313.0000
1982-03-16 22:00:00 UTC,2445045.416667,29.4519,-93.4333,0037,-15.61,14.05,21.0000,312.0000
1982-03-16 22:30:00 UTC,2445045.437500,29.4519,-93.4333,0037,-14.63,13.64,20.0000,313.0000
1982-03-16 23:00:00 UTC,2445045.458333,29.4519,-93.4333,0037,-13.67,13.20,19.0000,314.0000
1982-03-16 23:30:00 UTC,2445045.479167,29.4519,-93.4333,0037,-12.95,12.50,18.0000,314.0000
1982-03-17 00:00:00 UTC,2445045.500000,29.4519,-93.4333,0037,-12.63,11.38,17.0000,312.0000
1982-03-17 00:30:00 UTC,2445045.520833,29.4519,-93.4333,0037,-14.18,11.08,18.0000,308.0000
1982-03-17 01:00:00 UTC,2445045.541667,29.4519,-93.4333,0037,-16.18,11.76,20.0000,306.0000
1982-03-17 01:30:00 UTC,2445045.562500,29.4519,-93.4333,0037,-18.84,13.19,23.0000,305.0000
1982-03-17 02:00:00 UTC,2445045.583333,29.4519,-93.4333,0037,-20.48,14.34,25.0000,305.0000
1982-03-17 02:30:00 UTC,2445045.604167,29.4519,-93.4333,0037,-22.05,13.78,26.0000,302.0000
1982-03-17 03:00:00 UTC,2445045.625000,29.4519,-93.4333,0037,-22.28,11.35,25.0000,297.0000
1982-03-17 03:30:00 UTC,2445045.645833,29.4519,-93.4333,0037,-23.49,8.55,25.0000,290.0000
1982-03-17 04:00:00 UTC,2445045.666667,29.4519,-93.4333,0037,-24.15,6.47,25.0000,285.0000
1982-03-17 04:30:00 UTC,2445045.687500,29.4519,-93.4333,0037,-23.48,4.99,24.0000,282.0000
1982-03-17 05:00:00 UTC,2445045.708333,29.4519,-93.4333,0037,-22.58,4.39,23.0000,281.0000
1982-03-17 05:30:00 UTC,2445045.729167,29.4519,-93.4333,0037,-22.41,5.17,23.0000,283.0000
1982-03-17 06:00:00 UTC,2445045.750000,29.4519,-93.4333,0037,-22.32,5.56,23.0000,284.0000
1982-03-17 06:30:00 UTC,2445045.770833,29.4519,-93.4333,0037,-23.18,6.21,24.0000,285.0000
1982-03-17 07:00:00 UTC,2445045.791667,29.4519,-93.4333,0037,-22.83,7.42,24.0000,288.0000
1982-03-17 07:30:00 UTC,2445045.812500,29.4519,-93.4333,0037,-23.34,8.96,25.0000,291.0000
1982-03-17 08:00:00 UTC,2445045.833333,29.4519,-93.4333,0037,-23.56,10.99,26.0000,295.0000
1982-03-17 08:30:00 UTC,2445045.854167,29.4519,-93.4333,0037,-22.07,11.74,25.0000,298.0000
1982-03-17 09:00:00 UTC,2445045.875000,29.4519,-93.4333,0037,-21.65,12.50,25.0000,300.0000
1982-03-17 09:30:00 UTC,2445045.895833,29.4519,-93.4333,0037,-19.90,13.42,24.0000,304.0000
1982-03-17 10:00:00 UTC,2445045.916667,29.4519,-93.4333,0037,-19.15,16.07,25.0000,310.0000
1982-03-17 10:30:00 UTC,2445045.937500,29.4519,-93.4333,0037,-18.28,17.05,25.0000,313.0000
1982-03-17 11:00:00 UTC,2445045.958333,29.4519,-93.4333,0037,-17.98,17.37,25.0000,314.0000
1982-03-17 11:30:00 UTC,2445045.979167,29.4519,-93.4333,0037,-17.09,15.39,23.0000,312.0000
1982-03-17 12:00:00 UTC,2445046.000000,29.4519,-93.4333,0037,-16.60,14.43,22.0000,311.0000
1982-03-17 12:30:00 UTC,2445046.020833,29.4519,-93.4333,0037,-15.61,14.05,21.0000,312.0000
1982-03-17 13:00:00 UTC,2445046.041667,29.4519,-93.4333,0037,-14.85,14.85,21.0000,315.0000
1982-03-17 13:30:00 UTC,2445046.062500,29.4519,-93.4333,0037,-13.38,14.86,20.0000,318.0000
1982-03-17 14:00:00 UTC,2445046.083333,29.4519,-93.4333,0037,-12.31,15.76,20.0000,322.0000
1982-03-17 14:30:00 UTC,2445046.104167,29.4519,-93.4333,0037,-9.80,15.10,18.0000,327.0000
1982-03-17 15:00:00 UTC,2445046.125000,29.4519,-93.4333,0037,-7.76,13.99,16.0000,331.0000
1982-03-17 15:30:00 UTC,2445046.145833,29.4519,-93.4333,0037,-6.58,13.48,15.0000,334.0000
1982-03-17 16:00:00 UTC,2445046.166667,29.4519,-93.4333,0037,-5.49,11.78,13.0000,335.0000
1982-03-17 16:30:00 UTC,2445046.187500,29.4519,-93.4333,0037,-5.63,10.60,12.0000,332.0000
1982-03-17 17:00:00 UTC,2445046.208333,29.4519,-93.4333,0037,-5.00,8.66,10.0000,330.0000
1982-03-17 17:30:00 UTC,2445046.229167,29.4519,-93.4333,0037,-5.74,8.19,10.0000,325.0000
1982-03-17 18:00:00 UTC,2445046.250000,29.4519,-93.4333,0037,-6.25,6.47,9.0000,316.0000
1982-03-17 18:30:00 UTC,2445046.270833,29.4519,-93.4333,0037,-7.77,6.29,10.0000,309.0000
1982-03-17 19:00:00 UTC,2445046.291667,29.4519,-93.4333,0037,-8.67,6.77,11.0000,308.0000
1982-03-17 19:30:00 UTC,2445046.312500,29.4519,-93.4333,0037,-8.63,8.34,12.0000,314.0000
1982-03-17 20:00:00 UTC,2445046.333333,29.4519,-93.4333,0037,-7.71,9.19,12.0000,320.0000
1982-03-17 20:30:00 UTC,2445046.354167,29.4519,-93.4333,0037,-6.88,9.83,12.0000,325.0000
1982-03-17 21:00:00 UTC,2445046.375000,29.4519,-93.4333,0037,-4.69,8.83,10.0000,332.0000
1982-03-17 21:30:00 UTC,2445046.395833,29.4519,-93.4333,0037,-2.87,7.47,8.0000,339.0000
1982-03-17 22:00:00 UTC,2445046.416667,29.4519,-93.4333,0037,-2.16,6.66,7.0000,342.0000
1982-03-17 22:30:00 UTC,2445046.437500,29.4519,-93.4333,0037,-1.85,5.71,6.0000,342.0000
1982-03-17 23:00:00 UTC,2445046.458333,29.4519,-93.4333,0037,-1.46,4.78,5.0000,343.0000
1982-03-17 23:30:00 UTC,2445046.479167,29.4519,-93.4333,0037,-1.56,3.68,4.0000,337.0000
1982-03-18 00:00:00 UTC,2445046.500000,29.4519,-93.4333,0037,-1.89,2.33,3.0000,321.0000
1982-03-18 00:30:00 UTC,2445046.520833,29.4519,-93.4333,0037,-2.52,1.63,3.0000,303.0000
1982-03-18 01:00:00 UTC,2445046.541667,29.4519,-93.4333,0037,-1.92,0.55,2.0000,286.0000
1982-03-18 01:30:00 UTC,2445046.562500,29.4519,-93.4333,0037,-1.97,-0.35,2.0000,260.0000
1982-03-18 02:00:00 UTC,2445046.583333,29.4519,-93.4333,0037,-2.49,-1.68,3.0000,236.0000
1982-03-18 02:30:00 UTC,2445046.604167,29.4519,-93.4333,0037,-3.60,-3.47,5.0000,226.0000
1982-03-18 03:00:00 UTC,2445046.625000,29.4519,-93.4333,0037,-3.86,-4.60,6.0000,220.0000
1982-03-18 03:30:00 UTC,2445046.645833,29.4519,-93.4333,0037,-4.93,-6.30,8.0000,218.0000
1982-03-18 04:00:00 UTC,2445046.666667,29.4519,-93.4333,0037,-7.88,-6.16,10.0000,232.0000
1982-03-18 04:30:00 UTC,2445046.687500,29.4519,-93.4333,0037,-12.56,-3.36,13.0000,255.0000
1982-03-18 05:00:00 UTC,2445046.708333,29.4519,-93.4333,0037,-15.88,-1.95,16.0000,263.0000
1982-03-18 05:30:00 UTC,2445046.729167,29.4519,-93.4333,0037,-16.83,-2.37,17.0000,262.0000
1982-03-18 06:00:00 UTC,2445046.750000,29.4519,-93.4333,0037,-17.73,-3.13,18.0000,260.0000
1982-03-18 06:30:00 UTC,2445046.770833,29.4519,-93.4333,0037,-17.30,-4.96,18.0000,254.0000
1982-03-18 07:00:00 UTC,2445046.791667,29.4519,-93.4333,0037,-17.62,-7.12,19.0000,248.0000
1982-03-18 07:30:00 UTC,2445046.812500,29.4519,-93.4333,0037,-18.27,-8.13,20.0000,246.0000
1982-03-18 08:00:00 UTC,2445046.833333,29.4519,-93.4333,0037,-18.27,-8.13,20.0000,246.0000
1982-03-18 08:30:00 UTC,2445046.854167,29.4519,-93.4333,0037,-18.54,-7.49,20.0000,248.0000
1982-03-18 09:00:00 UTC,2445046.875000,29.4519,-93.4333,0037,-19.73,-7.18,21.0000,250.0000
1982-03-18 09:30:00 UTC,2445046.895833,29.4519,-93.4333,0037,-22.95,-7.02,24.0000,253.0000
1982-03-18 10:00:00 UTC,2445046.916667,29.4519,-93.4333,0037,-25.82,-7.89,27.0000,253.0000
1982-03-18 10:30:00 UTC,2445046.937500,29.4519,-93.4333,0037,-27.88,-7.99,29.0000,254.0000
1982-03-18 11:00:00 UTC,2445046.958333,29.4519,-93.4333,0037,-28.37,-6.03,29.0000,258.0000
1982-03-18 11:30:00 UTC,2445046.979167,29.4519,-93.4333,0037,-28.93,-2.02,29.0000,266.0000
1982-03-18 12:00:00 UTC,2445047.000000,29.4519,-93.4333,0037,-26.90,2.35,27.0000,275.0000
1982-03-18 12:30:00 UTC,2445047.020833,29.4519,-93.4333,0037,-25.33,5.85,26.0000,283.0000
1982-03-18 13:00:00 UTC,2445047.041667,29.4519,-93.4333,0037,-23.91,7.31,25.0000,287.0000
1982-03-18 13:30:00 UTC,2445047.062500,29.4519,-93.4333,0037,-23.64,8.14,25.0000,289.0000
1982-03-18 14:00:00 UTC,2445047.083333,29.4519,-93.4333,0037,-22.41,8.60,24.0000,291.0000
1982-03-18 14:30:00 UTC,2445047.104167,29.4519,-93.4333,0037,-20.25,8.60,22.0000,293.0000
1982-03-18 15:00:00 UTC,2445047.125000,29.4519,-93.4333,0037,-19.33,8.21,21.0000,293.0000
1982-03-18 15:30:00 UTC,2445047.145833,29.4519,-93.4333,0037,-18.91,6.51,20.0000,289.0000
1982-03-18 16:00:00 UTC,2445047.166667,29.4519,-93.4333,0037,-17.96,6.19,19.0000,289.0000
1982-03-18 16:30:00 UTC,2445047.187500,29.4519,-93.4333,0037,-15.87,6.09,17.0000,291.0000
1982-03-18 17:00:00 UTC,2445047.208333,29.4519,-93.4333,0037,-13.91,5.62,15.0000,292.0000
1982-03-18 17:30:00 UTC,2445047.229167,29.4519,-93.4333,0037,-12.14,4.66,13.0000,291.0000
1982-03-18 18:00:00 UTC,2445047.250000,29.4519,-93.4333,0037,-10.20,4.12,11.0000,292.0000
1982-03-18 18:30:00 UTC,2445047.270833,29.4519,-93.4333,0037,-8.22,3.66,9.0000,294.0000
1982-03-18 19:00:00 UTC,2445047.291667,29.4519,-93.4333,0037,-7.25,3.38,8.0000,295.0000
1982-03-18 19:30:00 UTC,2445047.312500,29.4519,-93.4333,0037,-6.18,3.29,7.0000,298.0000
1982-03-18 20:00:00 UTC,2445047.333333,29.4519,-93.4333,0037,-4.97,3.36,6.0000,304.0000
1982-03-18 20:30:00 UTC,2445047.354167,29.4519,-93.4333,0037,-4.10,2.87,5.0000,305.0000
1982-03-18 21:00:00 UTC,2445047.375000,29.4519,-93.4333,0037,-3.43,2.06,4.0000,301.0000
1982-03-18 21:30:00 UTC,2445047.395833,29.4519,-93.4333,0037,-2.23,2.01,3.0000,312.0000
1982-03-18 22:00:00 UTC,2445047.416667,29.4519,-93.4333,0037,-1.41,2.65,3.0000,332.0000
1982-03-18 22:30:00 UTC,2445047.437500,29.4519,-93.4333,0037,0.10,3.00,3.0000,2.0000
1982-03-18 23:00:00 UTC,2445047.458333,29.4519,-93.4333,0037,1.30,3.78,4.0000,19.0000
1982-03-18 23:30:00 UTC,2445047.479167,29.4519,-93.4333,0037,1.50,3.71,4.0000,22.0000
1982-03-19 00:00:00 UTC,2445047.500000,29.4519,-93.4333,0037,1.45,2.62,3.0000,29.0000
1982-03-19 00:30:00 UTC,2445047.520833,29.4519,-93.4333,0037,0.68,0.73,1.0000,43.0000
1982-03-19 01:00:00 UTC,2445047.541667,29.4519,-93.4333,0037,0.74,0.67,1.0000,48.0000
1982-03-19 01:30:00 UTC,2445047.562500,29.4519,-93.4333,0037,1.55,1.26,2.0000,51.0000
1982-03-19 02:00:00 UTC,2445047.583333,29.4519,-93.4333,0037,2.67,1.36,3.0000,63.0000
1982-03-19 02:30:00 UTC,2445047.604167,29.4519,-93.4333,0037,2.99,0.21,3.0000,86.0000
1982-03-19 03:00:00 UTC,2445047.625000,29.4519,-93.4333,0037,1.31,-1.51,2.0000,139.0000
1982-03-19 03:30:00 UTC,2445047.645833,29.4519,-93.4333,0037,-1.32,-2.70,3.0000,206.0000
1982-03-19 04:00:00 UTC,2445047.666667,29.4519,-93.4333,0037,-4.95,-0.70,5.0000,262.0000
1982-03-19 04:30:00 UTC,2445047.687500,29.4519,-93.4333,0037,-6.76,1.81,7.0000,285.0000
1982-03-19 05:00:00 UTC,2445047.708333,29.4519,-93.4333,0037,-6.44,2.74,7.0000,293.0000
1982-03-19 05:30:00 UTC,2445047.729167,29.4519,-93.4333,0037,-6.44,2.74,7.0000,293.0000
1982-03-19 06:00:00 UTC,2445047.750000,29.4519,-93.4333,0037,-5.71,1.85,6.0000,288.0000
1982-03-19 06:30:00 UTC,2445047.770833,29.4519,-93.4333,0037,-5.94,0.84,6.0000,278.0000
1982-03-19 07:00:00 UTC,2445047.791667,29.4519,-93.4333,0037,-5.94,-0.84,6.0000,262.0000
1982-03-19 07:30:00 UTC,2445047.812500,29.4519,-93.4333,0037,-4.46,-2.27,5.0000,243.0000
1982-03-19 08:00:00 UTC,2445047.833333,29.4519,-93.4333,0037,-4.15,-2.80,5.0000,236.0000
1982-03-19 08:30:00 UTC,2445047.854167,29.4519,-93.4333,0037,-4.85,-1.21,5.0000,256.0000
1982-03-19 09:00:00 UTC,2445047.875000,29.4519,-93.4333,0037,-5.94,0.84,6.0000,278.0000
1982-03-19 09:30:00 UTC,2445047.895833,29.4519,-93.4333,0037,-5.71,1.85,6.0000,288.0000
1982-03-19 10:00:00 UTC,2445047.916667,29.4519,-93.4333,0037,-6.49,2.62,7.0000,292.0000
1982-03-19 10:30:00 UTC,2445047.937500,29.4519,-93.4333,0037,-7.42,3.00,8.0000,292.0000
1982-03-19 11:00:00 UTC,2445047.958333,29.4519,-93.4333,0037,-7.13,3.63,8.0000,297.0000
1982-03-19 11:30:00 UTC,2445047.979167,29.4519,-93.4333,0037,-6.99,5.66,9.0000,309.0000
1982-03-19 12:00:00 UTC,2445048.000000,29.4519,-93.4333,0037,-7.22,8.30,11.0000,319.0000
1982-03-19 12:30:00 UTC,2445048.020833,29.4519,-93.4333,0037,-8.00,10.24,13.0000,322.0000
1982-03-19 13:00:00 UTC,2445048.041667,29.4519,-93.4333,0037,-8.62,11.03,14.0000,322.0000
1982-03-19 13:30:00 UTC,2445048.062500,29.4519,-93.4333,0037,-9.37,10.40,14.0000,318.0000
1982-03-19 14:00:00 UTC,2445048.083333,29.4519,-93.4333,0037,-9.66,8.70,13.0000,312.0000
1982-03-19 14:30:00 UTC,2445048.104167,29.4519,-93.4333,0037,-9.33,5.83,11.0000,302.0000
1982-03-19 15:00:00 UTC,2445048.125000,29.4519,-93.4333,0037,-9.21,3.91,10.0000,293.0000
1982-03-19 15:30:00 UTC,2445048.145833,29.4519,-93.4333,0037,-9.33,5.83,11.0000,302.0000
1982-03-19 16:00:00 UTC,2445048.166667,29.4519,-93.4333,0037,-8.03,8.92,12.0000,318.0000
1982-03-19 16:30:00 UTC,2445048.187500,29.4519,-93.4333,0037,-6.18,10.29,12.0000,329.0000
1982-03-19 17:00:00 UTC,2445048.208333,29.4519,-93.4333,0037,-6.18,10.29,12.0000,329.0000
1982-03-19 17:30:00 UTC,2445048.229167,29.4519,-93.4333,0037,-5.67,9.43,11.0000,329.0000
1982-03-19 18:00:00 UTC,2445048.250000,29.4519,-93.4333,0037,-4.69,8.83,10.0000,332.0000
1982-03-19 18:30:00 UTC,2445048.270833,29.4519,-93.4333,0037,-4.36,7.87,9.0000,331.0000
1982-03-19 19:00:00 UTC,2445048.291667,29.4519,-93.4333,0037,-5.25,6.04,8.0000,319.0000
1982-03-19 19:30:00 UTC,2445048.312500,29.4519,-93.4333,0037,-4.97,3.36,6.0000,304.0000
1982-03-19 20:00:00 UTC,2445048.333333,29.4519,-93.4333,0037,-4.19,2.72,5.0000,303.0000
1982-03-19 20:30:00 UTC,2445048.354167,29.4519,-93.4333,0037,-2.26,1.97,3.0000,311.0000
1982-03-19 21:00:00 UTC,2445048.375000,29.4519,-93.4333,0037,-1.62,1.18,2.0000,306.0000
1982-03-19 21:30:00 UTC,2445048.395833,29.4519,-93.4333,0037,-2.00,-0.10,2.0000,267.0000
1982-03-19 22:00:00 UTC,2445048.416667,29.4519,-93.4333,0037,-2.70,-1.32,3.0000,244.0000
1982-03-19 22:30:00 UTC,2445048.437500,29.4519,-93.4333,0037,-2.33,-1.89,3.0000,231.0000
1982-03-19 23:00:00 UTC,2445048.458333,29.4519,-93.4333,0037,-3.06,-2.57,4.0000,230.0000
1982-03-19 23:30:00 UTC,2445048.479167,29.4519,-93.4333,0037,-4.29,-2.58,5.0000,239.0000
1982-03-20 00:00:00 UTC,2445048.500000,29.4519,-93.4333,0037,-5.74,-1.75,6.0000,253.0000
1982-03-20 00:30:00 UTC,2445048.520833,29.4519,-93.4333,0037,-7.00,-0.24,7.0000,268.0000
1982-03-20 01:00:00 UTC,2445048.541667,29.4519,-93.4333,0037,-6.95,0.85,7.0000,277.0000
1982-03-20 01:30:00 UTC,2445048.562500,29.4519,-93.4333,0037,-6.82,1.57,7.0000,283.0000
1982-03-20 02:00:00 UTC,2445048.583333,29.4519,-93.4333,0037,-6.85,1.46,7.0000,282.0000
1982-03-20 02:30:00 UTC,2445048.604167,29.4519,-93.4333,0037,-6.96,0.73,7.0000,276.0000
1982-03-20 03:00:00 UTC,2445048.625000,29.4519,-93.4333,0037,-7.00,-0.24,7.0000,268.0000
1982-03-20 03:30:00 UTC,2445048.645833,29.4519,-93.4333,0037,-6.82,-1.57,7.0000,257.0000
1982-03-20 04:00:00 UTC,2445048.666667,29.4519,-93.4333,0037,-6.29,-3.07,7.0000,244.0000
1982-03-20 04:30:00 UTC,2445048.687500,29.4519,-93.4333,0037,-6.55,-4.59,8.0000,235.0000